sat.trackr.live / text

‹ back to catalog

STARLINK-36225

NORAD 67207 · 2025-304R

PAYLOAD ACTIVE UNKNOWN

§ Identity

Operator
Country
US
Launch date
2025-12-17
Launch site
AFWTR
Launch vehicle
Mass (kg)
RCS (m²)

Purposes: comms

External: N2YO · Heavens-Above · Gunter

§ Orbital elements

Epoch: 2026-05-24T22:21:44.152128Z

Period
96.11 min
Inclination
70.0015°
Eccentricity
0.0002555
Mean motion
14.98336554 rev/d
Perigee alt
570.3 km
Apogee alt
573.8 km
Semi-major
6,950.2 km
B*
2.4232e-4
RAAN
342.2750°
Arg perigee
265.4275°
Mean anomaly
94.6592°
Rev number
2,530

§ Raw data

STARLINK-362251 67207U 25304R   26144.93176102  .00002800  00000+0  24232-3 0  99972 67207  70.0015 342.2750 0002555 265.4275  94.6592 14.98336554 25301

JSON: /api/v1/satellites/67207 · /tle

For live sub-satellite position, see the globe view (requires WebGL).

§ Visibility from observer

Set your observer location to see the next 7 days of passes ≥ 10°. The values pass through the URL so the page stays shareable.

No JS? Fill the form by hand. The geolocation button needs JavaScript.